Location: Croisilles
(50.1998°N, 2.8793°E)
Time: 13:13:42
(UTC+00:00)

Cosmos 923 Rocket - Pass Details

Date: 21 January 2021
Orbit: 758 x 785 km, 74.0° (Epoch: 26 February)

Event Time Altitude Azimuth Distance (km) Brightness Sun altitude
Rises 17:31:59 0° 339° (NNW) 3,290 7.3 -10.7°
Reaches altitude 10° 17:34:31 10° 346° (NNW) 2,356 6.5 -11.1°
Maximum altitude 17:39:37 43° 58° (ENE) 1,089 4.4 -11.9°
Drops below altitude 10° 17:44:41 10° 130° (SE) 2,332 6.2 -12.7°
Sets 17:47:10 0° 137° (SE) 3,253 7.0 -13.1°
